Location: Pinhead Observatory
(34.4473°N, 118.1985°W)
Time: 07:32:18
(UTC-07:00)

CZ-4C R/B - Visible Passes

Search period start: 25 October 2014 00:00
Search period end: 03 November 2014 23:00
Orbit: 786 x 1217 km, 63.4° (Epoch: 23 October)

Date Brightness Start Highest point End Pass type
(mag) Time Alt. Az. Time Alt. Az. Time Alt. Az.
25 Oct 4.6 05:50:36 10° N 05:56:26 27° NE 06:02:37 10° ESE visible
26 Oct 5.2 04:37:55 10° NNE 04:40:25 12° NE 04:42:59 10° ENE visible
26 Oct 3.6 06:23:36 10° NNW 06:30:30 54° NE 06:37:53 10° SE visible
27 Oct 4.8 05:09:37 10° N 05:15:02 23° NE 05:20:44 10° E visible
28 Oct 3.9 05:42:29 10° NNW 05:49:11 45° NE 05:56:22 10° SE visible
29 Oct 4.9 04:28:42 10° N 04:33:36 20° NE 04:38:44 10° E visible
29 Oct 2.9 06:15:51 10° NNW 06:23:00 89° ENE 06:30:40 10° SSE visible
29 Oct 4.0 19:48:41 10° SSE 19:49:36 14° SSE 19:49:36 14° SSE visible
30 Oct 4.1 05:01:23 10° NNW 05:07:52 38° NE 05:14:46 10° ESE visible
30 Oct 3.4 20:20:59 10° SSW 20:23:30 29° SSW 20:23:30 29° SSW visible
31 Oct 5.0 03:49:04 13° NNE 03:52:08 17° NE 03:56:35 10° ENE visible
31 Oct 3.0 05:34:38 10° NNW 05:41:45 76° ENE 05:49:23 10° SE visible
31 Oct 3.4 19:08:09 10° SSE 19:12:00 20° ESE 19:12:05 20° ESE visible
31 Oct 3.9 20:54:44 10° SW 20:57:22 28° WSW 20:57:22 28° WSW visible
01 Nov 4.3 04:22:34 20° N 04:26:31 32° NE 04:33:04 10° ESE visible
01 Nov 3.0 06:08:25 10° NW 06:15:22 54° WSW 06:22:44 10° S visible
01 Nov 2.2 19:39:56 10° SSW 19:45:10 54° ESE 19:45:54 50° E visible
01 Nov 4.8 21:29:51 10° W 21:31:11 15° W 21:31:11 15° W visible
02 Nov 5.1 02:10:57 14° NE 02:10:57 14° NE 02:14:15 10° ENE visible
02 Nov 3.2 03:56:13 26° NNW 04:00:29 63° ENE 04:08:01 10° SE visible
02 Nov 3.9 05:43:06 10° WNW 05:48:42 25° WSW 05:54:33 10° SSW visible
02 Nov 3.7 17:27:52 10° SE 17:30:57 15° ESE 17:34:07 10° ENE visible
02 Nov 2.6 19:13:21 10° SW 19:18:41 60° NW 19:19:38 52° NNW visible
03 Nov 4.4 02:44:44 27° NE 02:45:08 27° NE 02:51:17 10° ESE visible
03 Nov 2.8 04:30:00 27° NW 04:34:10 65° WSW 04:41:42 10° SSE visible
03 Nov 2.5 17:58:59 10° S 18:04:01 42° ESE 18:08:00 17° NE visible
03 Nov 4.0 19:48:05 10° WSW 19:52:40 26° NW 19:53:15 26° NW visible
